#timestamp,LO_Frequency,Hit 
1504677615.7,286047007.2,N
1504677635.6,286047004.8,N
1504677655.4,286047004.9,N
1504677675.2,286047006.6,N
1504677695.0,286047006.9,N
1504677696.0,286047006.9,N
1504677715.8,286047004.9,N
1504677735.6,286047009.1,N
1504677755.4,286047006.3,N
1504677775.3,286047001.6,N
1504677795.1,286046996.5,N
1504677815.8,286046994.5,N
1504677835.7,286046993.0,N
1504677855.5,286046990.6,N
1504677875.3,286046988.9,N
1504677895.2,286046991.4,N
1504677915.9,286046990.9,N
1504677935.7,286046988.4,N
1504677955.6,286046990.0,N
1504677975.4,286046989.9,N
1504677995.2,286046984.1,N
1504678015.0,286046983.4,N
1504678016.0,286046983.4,N
1504678035.8,286046981.2,N
1504678055.6,286046983.4,N
1504678075.4,286046983.3,N
1504678095.3,286046984.6,N
1504678115.1,286046983.1,N
1504678135.8,286046981.0,N
1504678155.7,286046980.8,N
1504678175.5,286046980.8,N
1504678195.3,286046976.9,N
1504678215.2,286046975.2,N
1504678235.9,286046970.9,N
1504678255.7,286046975.2,N
1504678275.6,286046975.4,N
1504678295.4,286046973.1,N
1504678315.2,286046971.0,P
1504678335.1,286046984.3,N
1504678336.0,286046984.3,N
1504678355.8,286046993.5,N
1504678375.6,286047003.4,N
1504678395.5,286047010.8,N
1504678415.3,286047012.6,N
1504678435.1,286047014.1,N
1504678455.9,286047021.3,N
1504678475.7,286047024.0,N
1504678495.5,286047032.8,N
1504678515.3,286047034.2,N
1504678535.2,286047039.4,N
1504678555.0,286047037.5,N
1504678555.9,286047037.5,N
1504678575.7,286047033.4,N
1504678595.6,286047037.4,N
1504678615.4,286047039.4,N
1504678635.2,286047039.8,N
1504678655.1,286047039.9,N
1504678656.0,286047039.9,N
1504678675.8,286047044.0,N
1504678695.6,286047043.7,N
1504678715.5,286047043.6,N
1504678735.3,286047041.6,N
1504678755.1,286047043.1,N
1504678775.9,286047046.8,N
1504678795.7,286047049.2,N
1504678815.5,286047047.7,N
1504678835.3,286047047.1,N
1504678855.2,286047043.6,N
1504678875.0,286047043.2,N
1504678875.9,286047043.2,N
1504678895.8,286047046.6,P
1504678915.6,286047012.7,N
1504678935.4,286047013.3,N
1504678955.3,286047016.6,N
1504678975.1,286047014.2,N
1504678976.0,286047014.2,N
1504678995.8,286047014.2,N
1504679015.6,286047015.1,N
1504679035.5,286047013.1,N
1504679055.3,286047012.7,N
1504679075.1,286047014.0,N
1504679095.9,286047011.5,N
1504679115.7,286047011.6,N
1504679135.5,286047012.1,N
1504679155.4,286047009.3,N
1504679175.2,286047012.1,N
1504679195.0,286047013.6,N
1504679195.9,286047013.6,N
1504679215.8,286047013.1,N
1504679235.6,286047014.0,N
1504679255.4,286047011.5,N
1504679275.3,286047011.0,N
1504679295.1,286047015.6,N
1504679296.0,286047015.6,N
1504679315.8,286047012.2,N
1504679335.7,286047007.9,N
1504679355.5,286047009.7,N
1504679375.3,286047008.5,N
1504679395.1,286047010.5,N
1504679415.9,286047009.9,N
1504679435.7,286047009.4,N
1504679455.6,286047009.6,P
1504679475.4,286047001.1,N
1504679495.2,286046999.3,N
1504679515.0,286046999.4,N
1504679516.0,286046999.4,N
1504679535.8,286047000.5,N
1504679555.6,286046999.9,N
1504679575.4,286047000.8,N
1504679595.3,286047002.8,N
1504679615.1,286046997.0,N
1504679635.8,286047001.0,N
1504679655.7,286046998.5,N
1504679675.5,286047000.3,N
1504679695.3,286047004.0,N
1504679715.2,286047000.4,N
1504679735.9,286047002.4,N
1504679755.7,286046998.4,N
1504679775.6,286046998.4,N
1504679795.4,286047002.8,N
1504679815.2,286047002.3,N
1504679835.0,286047000.4,N
1504679836.0,286047000.4,N
1504679855.8,286046998.3,N
1504679875.6,286047003.7,N
1504679895.4,286047005.2,N
1504679915.3,286047006.0,N
1504679935.1,286047002.5,N
1504679955.8,286047002.1,N
1504679975.7,286047002.7,N
1504679995.5,286047001.1,N
1504680015.3,286047001.2,N
1504680035.2,286046998.4,N
1504680055.9,286046994.9,N
1504680075.7,286046999.3,N
1504680095.6,286047001.1,N
1504680115.4,286046994.9,N
1504680135.2,286046999.5,N
1504680155.1,286046996.7,N
1504680156.0,286046996.7,N
1504680175.8,286046995.4,N
1504680195.6,286046993.3,N
1504680215.5,286046997.4,N
1504680235.3,286046994.0,N
1504680255.1,286046993.8,N
1504680275.8,286046995.3,N
1504680295.7,286046991.8,N
1504680315.5,286046992.3,N
1504680335.3,286046996.7,N
1504680355.2,286047000.9,N
1504680375.9,286046999.6,N
1504680395.7,286046998.6,N
1504680415.6,286047001.1,N
1504680435.4,286046997.1,N
1504680455.2,286047000.5,N
1504680475.1,286047004.3,N
1504680476.0,286047004.3,N
1504680495.8,286047000.5,N
1504680515.6,286046996.9,N
1504680535.5,286046995.0,N
1504680555.3,286046997.8,N
1504680575.1,286046996.4,N
1504680595.9,286046991.7,N
1504680615.7,286046993.1,N
1504680635.5,286046997.6,N
1504680655.4,286046995.4,N
1504680675.2,286046997.4,N
1504680695.0,286046997.0,N
1504680695.9,286046997.0,N
1504680715.8,286046999.2,N
1504680735.6,286046996.2,N
1504680755.4,286046995.1,N
1504680775.2,286046995.2,N
1504680795.1,286046992.4,N
1504680796.0,286046992.4,N
1504680815.8,286046992.3,N
1504680835.6,286046992.9,N
1504680855.5,286046989.0,P
1504680875.3,286046994.2,N
1504680895.1,286046993.9,N
1504680915.9,286046998.0,N
1504680935.7,286046995.7,N
1504680955.5,286046995.8,N
1504680975.4,286046993.3,N
1504680995.2,286046998.0,N
1504681015.0,286046995.4,N
1504681015.9,286046995.4,N
1504681035.8,286046997.0,N
1504681055.6,286046998.9,N
1504681075.4,286046997.8,N
1504681095.3,286046993.9,N
1504681115.1,286046993.9,N
1504681116.0,286046993.9,N
1504681135.8,286046996.7,N
1504681155.7,286046998.8,N
1504681175.5,286046995.5,N
1504681195.3,286046994.2,N
